Overview Statistics Trail Chart Weather Telemetry Raw packets
 

This is the latest recevied weather packets stored in our database for station/object KE0TNI-13. If no packets are shown the sender has not sent any weather packets the latest 10 day(s).

<< 54 55 56 57 58 59 60 >>
Time Temp. Humidity Pressure Rain* Wind** Luminosity Snow
1777305505 2.22° C 81% 1013.9 hPa 0 mm - 116 W/m² -
1777305201 2.78° C 79% 1013.9 hPa 0 mm - 124 W/m² -
1777304896 2.78° C 77% 1013.9 hPa 0 mm - 262 W/m² -
1777304593 3.33° C 77% 1013.7 hPa 0 mm - 233 W/m² -
1777304289 2.78° C 78% 1013.5 hPa 0 mm - 193 W/m² -
1777303987 2.78° C 77% 1013.7 hPa 0 mm - 155 W/m² -
1777303683 2.22° C 78% 1013.7 hPa 0 mm - 174 W/m² -
1777303380 2.78° C 77% 1013.6 hPa 0 mm - 149 W/m² -
1777303078 2.22° C 78% 1013.9 hPa 0 mm - 234 W/m² -
1777302776 2.22° C 78% 1013.7 hPa 0 mm - 154 W/m² -
1777302474 2.22° C 79% 1013.7 hPa 0 mm - 160 W/m² -
1777302171 2.22° C 78% 1013.6 hPa 0 mm - 153 W/m² -
1777301869 2.22° C 78% 1013.6 hPa 0 mm - 157 W/m² -
1777301566 2.22° C 73% 1013.2 hPa 0 mm - 113 W/m² -
1777301263 2.22° C 70% 1013.6 hPa 0 mm - 207 W/m² -
1777300959 2.22° C 65% 1013.4 hPa 0 mm - 249 W/m² -
1777300658 2.22° C 66% 1013.4 hPa 0 mm - 144 W/m² -
1777300355 2.22° C 64% 1013.5 hPa 0 mm - 97 W/m² -
1777300052 2.22° C 64% 1013.2 hPa 0 mm - 83 W/m² -
1777299748 2.22° C 63% 1013.1 hPa 0 mm - 109 W/m² -
1777299446 2.78° C 63% 1013 hPa 0 mm - 142 W/m² -
1777299143 2.78° C 62% 1013.4 hPa 0 mm - 108 W/m² -
1777298841 2.78° C 61% 1013.1 hPa 0 mm - 104 W/m² -
1777298537 2.22° C 62% 1012.8 hPa 0 mm - 138 W/m² -
1777298234 2.22° C 60% 1012.6 hPa 0 mm - 93 W/m² -

* Rain latest hour (hover to see other rain measurements)
** Current wind speed in m/s (hover to see current wind gust speed)